Location: Newark
(25.4800°N, 85.7200°E)
Time: 06:19:00
(UTC+00:00)

Vanguard 1 Rocket - Pass Details

Date: 28 August 2019
Orbit: 652 x 4224 km, 34.3° (Epoch: 13 September)

Event Time Altitude Azimuth Distance (km) Brightness Sun altitude
Rises 18:48:53 0° 264° (W) 3,722 - -54.1°
Reaches altitude 10° 18:52:01 10° 271° (W) 2,452 - -54.0°
Maximum altitude 18:57:00 41° 343° (NNW) 975 - -53.7°
Drops below altitude 10° 19:01:09 10° 55° (NE) 2,051 - -53.4°
Sets 19:03:33 0° 63° (ENE) 3,031 - -53.2°
